This is the latest recevied weather packets stored in our database for station/object DG1ROH. If no packets are shown the sender has not sent any weather packets the latest 1 day(s).
| Time | Temp. | Humidity | Pressure | Rain* | Wind** | Luminosity | Snow |
|---|---|---|---|---|---|---|---|
| 1777976787 | 15° C | 88% | 1009.2 hPa | 0 mm | 0.45 m/s, 47° | 172 W/m² | - |
| 1777976664 | 15° C | 87% | 1009.1 hPa | 0 mm | 0.45 m/s, 48° | 151 W/m² | - |
| 1777976598 | 15° C | 87% | 1009.1 hPa | 0 mm | 0.45 m/s, 48° | 144 W/m² | - |
| 1777976590 | 15° C | 87% | 1009.2 hPa | 0 mm | 0.45 m/s, 48° | 141 W/m² | - |
| 1777976305 | 15° C | 88% | 1009.2 hPa | 0 mm | 0.45 m/s, 45° | 165 W/m² | - |
| 1777976185 | 15° C | 88% | 1009.2 hPa | 0 mm | 0.45 m/s, 45° | 181 W/m² | - |
| 1777976063 | 15° C | 88% | 1009.2 hPa | 0 mm | 0.45 m/s, 45° | 179 W/m² | - |
| 1777975942 | 15° C | 88% | 1009.3 hPa | 0 mm | 0.45 m/s, 44° | 176 W/m² | - |
| 1777975823 | 15° C | 88% | 1009.2 hPa | 0 mm | 0.45 m/s, 44° | 178 W/m² | - |
| 1777975702 | 15° C | 88% | 1009.2 hPa | 0 mm | 0.45 m/s, 44° | 179 W/m² | - |
| 1777975585 | 14.44° C | 88% | 1009.2 hPa | 0 mm | 0.45 m/s, 44° | 162 W/m² | - |
| 1777975458 | 14.44° C | 88% | 1009.2 hPa | 0 mm | 0 m/s | 146 W/m² | - |
| 1777975339 | 14.44° C | 88% | 1009.2 hPa | 0 mm | 0 m/s | 134 W/m² | - |
| 1777975218 | 15° C | 88% | 1009.2 hPa | 0 mm | 0 m/s | 123 W/m² | - |
| 1777975099 | 15° C | 89% | 1009.2 hPa | 0 mm | 0.45 m/s, 38° | 120 W/m² | - |
| 1777974977 | 15° C | 88% | 1009.2 hPa | 0 mm | 0.45 m/s, 38° | 118 W/m² | - |
| 1777974856 | 15° C | 89% | 1009.2 hPa | 0 mm | 0.45 m/s, 38° | 123 W/m² | - |
| 1777974735 | 15° C | 88% | 1009.2 hPa | 0 mm | 0.45 m/s, 38° | 127 W/m² | - |
| 1777974612 | 15° C | 88% | 1009.2 hPa | 0 mm | 0.45 m/s, 38° | 118 W/m² | - |
| 1777974493 | 15° C | 88% | 1009.1 hPa | 0 mm | 0.45 m/s, 36° | 114 W/m² | - |
| 1777974373 | 15° C | 88% | 1009.1 hPa | 0 mm | 0.45 m/s, 51° | 118 W/m² | - |
| 1777974252 | 15° C | 88% | 1009.2 hPa | 0 mm | 0.45 m/s, 52° | 135 W/m² | - |
| 1777974194 | 14.44° C | 88% | 1009.2 hPa | 0 mm | 0.45 m/s, 52° | 149 W/m² | - |
| 1777974006 | 14.44° C | 87% | 1009.2 hPa | 0 mm | 0.45 m/s, 52° | 160 W/m² | - |
| 1777973887 | 14.44° C | 88% | 1009.2 hPa | 0 mm | 0.45 m/s, 56° | 162 W/m² | - |
* Rain latest hour (hover to see other rain measurements)
** Current wind speed in m/s (hover to see current wind gust speed)